Torna al catalogo

OPS 7724

AttivoNavigazioneHEO
NORAD 6791·PAYLOAD·🇺🇸 United States

Lanciato Aug 21, 1973 da Vandenberg Space Force Base

Loading…

Prossimi Passaggi (prossime 24 ore)

TLE

AggiornatoSource: Space-Track

Epoca: Sep 13, 2026, 09:15 UTC

1 06791U 73056A   26256.38605959  .00000330  00000-0  34049-3 0  9999
2 06791  62.8903  11.0076 7342705 281.5631  11.2132  2.00658493 51386

Traccia OPS 7724 in tempo reale con AllMySat

Download on the App Store